Home   Weather   Valencia   Past weeks

Flag for Spain Past Weather in Valencia, Spain — Yesterday and Last 2 Weeks

Now
75 °F

Clear.


Feels Like: 75 °F
Forecast: 76 / 85 °F
Wind: 2 mph from North

Location: Valencia / Aeropuerto

Current Time: Aug 18, 2017 at 5:20:01 am

Latest Report: Aug 18, 2017 at 4:30 am


Visibility: 10 mi

Pressure: 30.04 "Hg

Humidity: 89%

Dew Point: 72 °F

Location of ValenciaLocation

Past Weather in Valencia — Graph

°F

Valencia Temperature Yesterday

Maximum temperature yesterday: 88 °F (at 12:00 pm)
Minimum temperature yesterday: 79 °F (at 12:30 am)
Average temperature yesterday: 83 °F

High & Low Weather Summary for the Past Weeks

 TemperatureHumidityPressure
High99 °F (Aug 3, 2:00 pm)94% (Aug 8, 6:00 am)30.18 "Hg (Aug 8, 6:00 am)
Low63 °F (Aug 10, 5:00 am)25% (Aug 3, 3:00 pm)29.77 "Hg (Aug 8, 5:00 am)
Average80 °F64%30.03 "Hg
* Reported Aug 3 4:00 am — Aug 18 4:00 am, Valencia. Weather by CustomWeather, © 2017

Note: Actual official high and low records may vary slightly from our data, if they occured in-between our weather recording intervals... More about our weather records

Advertising

Valencia Weather History for the Previous 24 Hours

Scroll right to see more
 ConditionsComfort  
Time TempWeatherWind HumidityBarometerVisibility
4:00 am
Fri, Aug 18
75 °FClear.1 mph89%30.07 "Hg10 mi
3:30 am77 °FClear.1 mph83%30.07 "Hg10 mi
3:00 am77 °FClear.2 mph83%30.07 "Hg10 mi
2:30 am79 °FPassing clouds.2 mph79%30.07 "HgN/A
2:00 am79 °FPassing clouds.No wind84%30.07 "HgN/A
1:30 am79 °FPassing clouds.2 mph84%30.07 "HgN/A
1:00 am79 °FPassing clouds.1 mph84%30.07 "HgN/A
12:30 am79 °FPassing clouds.No wind84%30.09 "HgN/A
12:00 am79 °FPassing clouds.1 mph84%30.07 "HgN/A
11:30 pm
Thu, Aug 17
79 °FPassing clouds.2 mph84%30.07 "HgN/A
11:00 pm81 °FPassing clouds.2 mph79%30.07 "HgN/A
10:30 pm81 °FClear.2 mph79%30.07 "Hg10 mi
10:00 pm81 °FPassing clouds.3 mph79%30.07 "HgN/A
9:30 pm81 °FPassing clouds.5 mph79%30.04 "HgN/A
9:00 pm81 °FPassing clouds.6 mph74%30.07 "HgN/A
8:30 pm82 °FSunny.8 mph70%30.04 "Hg10 mi
8:00 pm84 °FPassing clouds.8 mph66%30.04 "HgN/A
7:30 pm86 °FPassing clouds.9 mph59%30.04 "HgN/A
7:00 pm86 °FPassing clouds.8 mph59%30.04 "HgN/A
6:30 pm86 °FPassing clouds.8 mph59%30.04 "HgN/A
6:00 pm88 °FPassing clouds.8 mph52%30.04 "HgN/A
5:30 pm88 °FPassing clouds.9 mph52%30.04 "HgN/A
5:00 pm88 °FPassing clouds.8 mph49%30.07 "HgN/A
4:30 pm88 °FPassing clouds.9 mph52%30.07 "HgN/A
4:00 pm88 °FPassing clouds.10 mph52%30.07 "HgN/A
3:30 pm88 °FPassing clouds.12 mph52%30.07 "HgN/A
3:00 pm88 °FPassing clouds.10 mph52%30.07 "HgN/A
2:30 pm88 °FPassing clouds.9 mph49%30.09 "HgN/A
2:00 pm88 °FPassing clouds.9 mph49%30.09 "HgN/A
1:30 pm88 °FPassing clouds.7 mph59%30.09 "HgN/A
1:00 pm86 °FPassing clouds.5 mph62%30.09 "HgN/A
12:30 pm88 °FPassing clouds.3 mph55%30.09 "HgN/A
12:00 pm88 °FPassing clouds.2 mph52%30.09 "HgN/A
11:30 am84 °FPassing clouds.2 mph62%30.09 "HgN/A
11:00 am84 °FScattered clouds.2 mph62%30.09 "HgN/A
10:30 am82 °FPartly sunny.No wind70%30.12 "HgN/A
10:00 am82 °FScattered clouds.2 mph70%30.09 "HgN/A
9:30 am81 °FScattered clouds.3 mph74%30.09 "HgN/A
9:00 am81 °FPartly sunny.2 mph79%30.09 "HgN/A
8:30 am79 °FPartly sunny.1 mph84%30.09 "HgN/A
8:00 am79 °FPartly sunny.1 mph79%30.09 "HgN/A
7:30 am79 °FBroken clouds.3 mph84%30.09 "HgN/A
7:00 am79 °FPassing clouds.2 mph84%30.09 "HgN/A
6:30 am79 °FPassing clouds.3 mph84%30.09 "HgN/A
6:00 am79 °FPassing clouds.5 mph84%30.07 "HgN/A
5:30 am79 °FPassing clouds.2 mph84%30.09 "HgN/A
5:00 am79 °FPassing clouds.No wind84%30.07 "HgN/A
Weather by CustomWeather, © 2017

See weather overviewHow to use our weather pages